Torna al catalogo

STARLINK-30385

AttivoComunicazioniVLEO
NORAD 57778·PAYLOAD·🇺🇸 United States

Lanciato Sep 4, 2023 da Cape Canaveral Space Force Station

Loading…

Prossimi Passaggi (prossime 24 ore)

TLE

AggiornatoSource: CelesTrak SupGP

Epoca: Sep 14, 2026, 21:28 UTC

1 57778C 23134H   26257.89493056  .00001341  00000+0  48561-4 0  2576
2 57778  43.0027 194.4762 0001260 261.1901 228.3008 15.27573842    12

Traccia STARLINK-30385 in tempo reale con AllMySat

Download on the App Store